TimeEST,TemperatureF,Dew PointF,Humidity,Sea Level PressureIn,VisibilityMPH,Wind Direction,Wind SpeedMPH,Gust SpeedMPH,PrecipitationIn,Events,Conditions,WindDirDegrees,DateUTC
12:53 AM,46.9,27.0,46,30.01,10.0,ENE,5.8,-,N/A,,Clear,60,2014-02-20 05:53:00
1:53 AM,46.0,27.0,47,30.02,10.0,ENE,3.5,-,N/A,,Clear,60,2014-02-20 06:53:00
2:53 AM,46.0,27.0,47,30.00,10.0,ENE,5.8,-,N/A,,Clear,70,2014-02-20 07:53:00
3:53 AM,46.0,26.1,46,29.98,10.0,ENE,5.8,-,N/A,,Clear,70,2014-02-20 08:53:00
4:53 AM,45.0,26.1,48,29.96,10.0,East,6.9,-,N/A,,Clear,100,2014-02-20 09:53:00
5:53 AM,48.9,30.0,48,29.95,10.0,Variable,5.8,-,N/A,,Overcast,0,2014-02-20 10:53:00
6:53 AM,50.0,35.1,57,29.93,10.0,South,6.9,-,N/A,,Overcast,170,2014-02-20 11:53:00
7:53 AM,51.1,39.0,63,29.94,10.0,South,4.6,-,N/A,,Overcast,190,2014-02-20 12:53:00
8:53 AM,54.0,42.1,64,29.95,10.0,SSW,4.6,-,N/A,,Overcast,210,2014-02-20 13:53:00
9:53 AM,59.0,45.0,60,29.94,10.0,SW,4.6,-,N/A,,Overcast,220,2014-02-20 14:53:00
10:53 AM,63.0,46.0,54,29.92,10.0,Variable,5.8,-,N/A,,Clear,0,2014-02-20 15:53:00
11:53 AM,66.0,48.9,54,29.89,10.0,North,-9999.0,-,N/A,,Mostly Cloudy,0,2014-02-20 16:53:00
12:53 PM,68.0,50.0,52,29.86,10.0,Variable,6.9,21.9,N/A,,Overcast,0,2014-02-20 17:53:00
1:53 PM,68.0,50.0,52,29.84,10.0,SSW,8.1,21.9,N/A,,Overcast,210,2014-02-20 18:53:00
2:53 PM,70.0,48.0,46,29.83,10.0,Variable,6.9,24.2,N/A,,Mostly Cloudy,0,2014-02-20 19:53:00
3:53 PM,71.1,48.9,45,29.81,10.0,SSW,10.4,20.7,N/A,,Mostly Cloudy,210,2014-02-20 20:53:00
4:53 PM,70.0,50.0,49,29.80,10.0,Variable,6.9,23.0,N/A,,Mostly Cloudy,0,2014-02-20 21:53:00
5:53 PM,69.1,50.0,51,29.78,10.0,Variable,5.8,18.4,N/A,,Overcast,0,2014-02-20 22:53:00
6:53 PM,66.9,53.1,61,29.78,10.0,South,9.2,-,N/A,,Mostly Cloudy,190,2014-02-20 23:53:00
7:53 PM,66.9,52.0,59,29.76,10.0,South,8.1,20.7,N/A,,Partly Cloudy,180,2014-02-21 00:53:00
8:53 PM,66.9,52.0,59,29.75,10.0,South,8.1,21.9,N/A,,Clear,190,2014-02-21 01:53:00
9:53 PM,66.9,52.0,59,29.70,10.0,South,16.1,31.1,N/A,,Clear,180,2014-02-21 02:53:00
10:53 PM,66.9,52.0,59,29.67,10.0,South,15.0,33.4,N/A,,Scattered Clouds,190,2014-02-21 03:53:00
11:53 PM,66.0,51.1,59,29.63,10.0,South,11.5,25.3,N/A,,Clear,190,2014-02-21 04:53:00